Custer, SD

6:58 AM MDT on June 24, 2017 (GMT -0600)
Custer County

Weather History for KCUT - August, 2014

Change the Weather History Date:

Saturday, August 9, 2014

  Actual Average Record
Temperature  
Mean Temperature 65 °F 65 °F  
Max Temperature 80 °F 79 °F 93 °F (1992)
Min Temperature 49 °F 51 °F 32 °F (1960)
Degree Days  
Heating Degree Days 0 2  
Month to date heating degree days 5 18  
Since 1 June heating degree days 357 299  
Since 1 July heating degree days 84 79  
Cooling Degree Days 0 2  
Month to date cooling degree days 10 18  
Year to date cooling degree days 100 125  
Since 1 June cooling degree days 96 124  
Growing Degree Days 14 (Base 50)    
Moisture  
Dew Point 53 °F    
Average Humidity 63    
Maximum Humidity 96    
Minimum Humidity 30    
Precipitation  
Precipitation 0.02 in 0.07 in 0.91 in (1968)
Month to date precipitation 1.52 0.60  
Year to date precipitation 14.13 13.37  
Sea Level Pressure  
Sea Level Pressure 30.05 in    
Wind  
Wind Speed 6 mph (NNE)    
Max Wind Speed 21 mph    
Max Gust Speed 28 mph    
Visibility 10 miles    
Events Rain , Thunderstorm    
T = Trace of Precipitation, MM = Missing Value Source: NWS Daily Summary

Daily Weather History Graph

Daily Weather History Graph

Search for Another Location

Airport or City:

Trip Planner

Search our weather history database for the weather conditions in past years. The results will help you decide how hot, cold, wet, or windy it might be!

Date:

Astronomy

Aug. 09, 2014 Rise Set
Actual Time 5:52 AM MDT 8:06 PM MDT
Civil Twilight 5:20 AM MDT 8:38 PM MDT
Nautical Twilight 4:41 AM MDT 9:17 PM MDT
Astronomical Twilight 3:57 AM MDT 10:01 PM MDT
Moon 7:09 PM MDT (8/9) 4:35 AM MDT (8/9)
Length of Visible Light 15h 18m
Length of Day
14h 14m
Waxing Gibbous, 98% of the Moon is Illuminated
Aug 9
Waxing Gibbous
Aug 10
Full
Aug 17
Last Quarter
Aug 25
New
Sep 2
First Quarter

Hourly Weather History & Observations

Time (MDT) Temp. Dew Point Humidity Pressure Visibility Wind Dir Wind Speed Gust Speed Precip Events Conditions
12:53 AM 52.0 °F 50.0 °F 93% 29.96 in 10.0 mi North 4.6 mph - N/A   Clear
1:53 AM 51.1 °F 50.0 °F 96% 29.96 in 10.0 mi NNW 3.5 mph - N/A   Clear
2:53 AM 50.0 °F 48.0 °F 93% 29.95 in 10.0 mi NW 3.5 mph - N/A   Clear
3:53 AM 48.9 °F 46.9 °F 93% 29.94 in 10.0 mi NW 4.6 mph - N/A   Clear
4:53 AM 48.9 °F 46.0 °F 90% 29.94 in 10.0 mi Calm Calm - N/A   Clear
5:53 AM 48.9 °F 46.0 °F 90% 29.95 in 10.0 mi NW 3.5 mph - N/A   Clear
6:53 AM 52.0 °F 46.9 °F 83% 29.95 in 10.0 mi NW 3.5 mph - N/A   Clear
7:53 AM 62.1 °F 51.1 °F 67% 29.94 in 10.0 mi Calm Calm - N/A   Clear
8:53 AM 66.9 °F 52.0 °F 59% 29.94 in 10.0 mi Variable 4.6 mph - N/A   Clear
9:53 AM 72.0 °F 53.1 °F 51% 29.93 in 10.0 mi Variable 4.6 mph - N/A   Clear
11:53 AM 79.0 °F 45.0 °F 30% 29.94 in 10.0 mi NNW 9.2 mph - N/A   Clear
12:48 PM 75.2 °F 60.8 °F 61% 30.15 in 10.0 mi NE 13.8 mph 18.4 mph N/A Thunderstorm Partly Cloudy
12:53 PM 75.0 °F 60.1 °F 60% 29.97 in 10.0 mi ENE 13.8 mph 18.4 mph N/A Thunderstorm Partly Cloudy
1:02 PM 73.0 °F 57.9 °F 59% 30.15 in 10.0 mi East 12.7 mph - N/A   Partly Cloudy
1:35 PM 69.1 °F 57.0 °F 65% 30.16 in 10.0 mi ENE 8.1 mph - N/A Thunderstorm Mostly Cloudy
1:49 PM 68.0 °F 57.2 °F 68% 30.16 in 10.0 mi ENE 9.2 mph - N/A Thunderstorm Thunderstorm
1:53 PM 68.0 °F 57.0 °F 68% 30.01 in 10.0 mi ESE 6.9 mph - N/A Thunderstorm Thunderstorm
2:04 PM 66.2 °F 57.2 °F 73% 30.15 in 10.0 mi ESE 11.5 mph - N/A Thunderstorm Partly Cloudy
2:37 PM 66.0 °F 55.9 °F 70% 30.17 in 10.0 mi ESE 8.1 mph - N/A   Overcast
2:53 PM 64.9 °F 55.9 °F 73% 30.04 in 10.0 mi Variable 4.6 mph - N/A   Mostly Cloudy
3:17 PM 64.9 °F 57.0 °F 75% 30.19 in 10.0 mi ESE 6.9 mph - N/A Thunderstorm Thunderstorm
3:53 PM 64.9 °F 55.9 °F 73% 30.06 in 10.0 mi ENE 5.8 mph - N/A Thunderstorm Partly Cloudy
4:40 PM 66.9 °F 55.0 °F 66% 30.19 in 10.0 mi NE 5.8 mph - N/A   Clear
4:53 PM 69.1 °F 54.0 °F 58% 30.04 in 10.0 mi North 6.9 mph - N/A   Clear
5:53 PM 70.0 °F 57.0 °F 63% 30.03 in 10.0 mi ENE 9.2 mph - N/A   Partly Cloudy
6:53 PM 71.1 °F 57.0 °F 61% 30.03 in 10.0 mi NNE 4.6 mph - N/A   Clear
7:53 PM 66.9 °F 57.0 °F 70% 30.03 in 10.0 mi North 4.6 mph - N/A   Mostly Cloudy
8:19 PM 66.0 °F 55.9 °F 70% 30.21 in 10.0 mi North 5.8 mph - N/A Thunderstorm Overcast
8:38 PM 64.9 °F 51.1 °F 61% 30.25 in 10.0 mi NNW 12.7 mph 28.8 mph 0.00 in Rain Light Rain
10:53 PM 57.9 °F 50.0 °F 75% 30.08 in 10.0 mi North 4.6 mph - N/A   Overcast
11:53 PM 57.0 °F 51.1 °F 81% 30.07 in 10.0 mi North 6.9 mph - N/A   Overcast